If you wish to contribute or participate in the discussions about articles you are invited to join SKYbrary as a registered user

 Actions

Solenzara (BA 126) Air Base

From SKYbrary Wiki

LFKS
Airport
ICAO: LFKS – IATA: SOZ
Summary
Name Solenzara (BA 126) Air Base
Region Europe
Territory France FR.gif
Location , Corse
Serving Solenzara
Elevation 8.534 m
28 ft
28 ft8.534 m
Type medium airport
Coordinates 41° 55' 27.90" N, 9° 24' 21.60" E
Runways
Designator Length Width Surface ROPS
18/36 2627 m8,618.766 ft
45 m147.638 ft
CON /


METAR
Observation LFKS 231930Z AUTO 26004KT 230V300 9999 BKN013 BKN021 BKN120 19/17 Q1014
Station Solenzara
Date/Time 23 October 2019 19:30:00
Wind direction 260°
Wind speed 04 kts
Lowest cloud amount broken clouds
Temperature 19°C
Dew point 17°C
Humidity 88%
QNH 1014 hPa
Weather condition n/a